Atka, AK

9:19 AM HDT on April 28, 2017 (GMT -0900)
Atka

Weather History for PAAK - November, 2013

Change the Weather History Date:

Wednesday, November 6, 2013

  Actual Average (PADK) Record (PADK)
Temperature  
Mean Temperature 40 °F -  
Max Temperature 46 °F 44 °F 54 °F (1964)
Min Temperature 35 °F 34 °F 26 °F (2007)
Degree Days  
Heating Degree Days 24    
Moisture  
Dew Point 33 °F    
Average Humidity 72    
Maximum Humidity 87    
Minimum Humidity 57    
Precipitation  
Precipitation 0.00 in - - ()
Sea Level Pressure  
Sea Level Pressure 29.41 in    
Wind  
Wind Speed 27 mph (WSW)    
Max Wind Speed 39 mph    
Max Gust Speed 58 mph    
Visibility 8 miles    
Events      
Averages and records for this station are not official NWS values.
T = Trace of Precipitation, MM = Missing Value Source: NWS Daily Summary

Daily Weather History Graph

Daily Weather History Graph

Search for Another Location

Airport or City:

Trip Planner

Search our weather history database for the weather conditions in past years. The results will help you decide how hot, cold, wet, or windy it might be!

Date:

Astronomy

Nov. 06, 2013 Rise Set
Actual Time 8:42 AM HST 5:57 PM HST
Civil Twilight 8:05 AM HST 6:34 PM HST
Nautical Twilight 7:25 AM HST 7:14 PM HST
Astronomical Twilight 6:45 AM HST 7:54 PM HST
Moon 12:20 PM HST (11/6) 9:08 PM HST (11/6)
Length of Visible Light 10h 28m
Length of Day
9h 15m
Waxing Crescent, 15% of the Moon is Illuminated
Nov 6
Waxing Crescent
Nov 9
First Quarter
Nov 17
Full
Nov 25
Last Quarter
Dec 2
New

Hourly Weather History & Observations

Time (HST) Temp. Windchill Dew Point Humidity Pressure Visibility Wind Dir Wind Speed Gust Speed Precip Events Conditions
12:16 AM 46.4 °F 36.7 °F 37.4 °F 71% 29.06 in 7.0 mi South 33.4 mph 44.9 mph N/A   Overcast
12:36 AM 44.6 °F 34.4 °F 37.4 °F 76% 29.04 in 6.0 mi South 32.2 mph 47.2 mph N/A   Mostly Cloudy
12:56 AM 44.6 °F 34.4 °F 37.4 °F 76% 29.04 in 6.0 mi South 32.2 mph 47.2 mph N/A   Mostly Cloudy
1:16 AM 44.6 °F 34.2 °F 37.4 °F 76% 29.03 in 6.0 mi South 33.4 mph 50.6 mph N/A   Mostly Cloudy
1:36 AM 44.6 °F 33.9 °F 37.4 °F 76% 29.03 in 7.0 mi South 35.7 mph 51.8 mph N/A   Overcast
1:56 AM 44.6 °F 34.9 °F 35.6 °F 71% 29.02 in 7.0 mi South 28.8 mph 49.5 mph N/A   Overcast
2:16 AM 44.6 °F 35.5 °F 37.4 °F 76% 29.03 in 6.0 mi South 25.3 mph 46.0 mph N/A   Overcast
2:36 AM 44.6 °F 34.6 °F 37.4 °F 76% 29.04 in 3.0 mi South 31.1 mph 43.7 mph N/A   Overcast
2:56 AM 42.8 °F 33.3 °F 35.6 °F 76% 29.02 in 5.0 mi SSW 24.2 mph 44.9 mph N/A   Overcast
3:16 AM 44.6 °F 33.6 °F 35.6 °F 71% 29.02 in 7.0 mi South 38.0 mph 54.1 mph N/A   Overcast
3:36 AM 42.8 °F 31.0 °F 37.4 °F 81% 29.02 in 3.0 mi South 39.1 mph 52.9 mph N/A   Overcast
3:56 AM 42.8 °F 32.1 °F 37.4 °F 81% 29.02 in 3.0 mi South 31.1 mph 50.6 mph N/A   Overcast
4:16 AM 42.8 °F 32.1 °F 37.4 °F 81% 29.02 in 3.0 mi SSW 31.1 mph 47.2 mph N/A   Overcast
4:36 AM 42.8 °F 31.1 °F 37.4 °F 81% 29.01 in 3.0 mi SSW 38.0 mph 47.2 mph N/A   Overcast
4:56 AM 42.8 °F 32.3 °F 37.4 °F 81% 29.01 in 3.0 mi SSW 29.9 mph 47.2 mph N/A   Overcast
5:16 AM 42.8 °F 32.9 °F 37.4 °F 81% 29.04 in 8.0 mi SW 26.5 mph 36.8 mph N/A   Overcast
5:36 AM 42.8 °F 34.0 °F 35.6 °F 76% 29.05 in 10.0 mi SW 20.7 mph 33.4 mph N/A   Overcast
5:56 AM 42.8 °F 36.2 °F 35.6 °F 76% 29.08 in 10.0 mi WSW 12.7 mph 16.1 mph N/A   Overcast
6:16 AM 42.8 °F 32.9 °F 37.4 °F 81% 29.11 in 9.0 mi West 26.5 mph 34.5 mph N/A   Overcast
6:36 AM 41.0 °F 31.4 °F 35.6 °F 81% 29.14 in 4.0 mi West 21.9 mph 31.1 mph N/A   Overcast
6:56 AM 39.2 °F 29.3 °F 35.6 °F 87% 29.16 in 5.0 mi WSW 20.7 mph 33.4 mph N/A   Overcast
7:16 AM 39.2 °F 28.7 °F 35.6 °F 87% 29.17 in 3.0 mi West 23.0 mph 32.2 mph N/A   Overcast
7:36 AM 39.2 °F 29.3 °F 35.6 °F 87% 29.19 in 5.0 mi West 20.7 mph 27.6 mph N/A   Overcast
7:56 AM 39.2 °F 30.2 °F 35.6 °F 87% 29.20 in 4.0 mi West 17.3 mph 24.2 mph N/A   Mostly Cloudy
8:16 AM 41.0 °F 34.3 °F 35.6 °F 81% 29.21 in 10.0 mi WNW 11.5 mph 17.3 mph N/A   Mostly Cloudy
8:36 AM 42.8 °F 37.5 °F 33.8 °F 70% 29.23 in 10.0 mi WSW 9.2 mph - N/A   Overcast
8:56 AM 42.8 °F 36.6 °F 32.0 °F 66% 29.25 in 9.0 mi WSW 11.5 mph 16.1 mph N/A   Overcast
9:16 AM 42.8 °F 36.2 °F 28.4 °F 57% 29.27 in 10.0 mi WSW 12.7 mph 25.3 mph N/A   Overcast
9:36 AM 42.8 °F 35.1 °F 28.4 °F 57% 29.28 in 9.0 mi WSW 16.1 mph 25.3 mph N/A   Overcast
9:56 AM 42.8 °F 34.5 °F 28.4 °F 57% 29.30 in 10.0 mi West 18.4 mph 26.5 mph N/A   Overcast
10:16 AM 42.8 °F 34.8 °F 28.4 °F 57% 29.31 in 10.0 mi WSW 17.3 mph 26.5 mph N/A   Overcast
10:36 AM 42.8 °F 33.3 °F 28.4 °F 57% 29.33 in 10.0 mi WNW 24.2 mph 32.2 mph N/A   Overcast
10:56 AM 39.2 °F 28.7 °F 32.0 °F 75% 29.35 in 6.0 mi WNW 23.0 mph 27.6 mph N/A   Mostly Cloudy
11:16 AM 37.4 °F 26.4 °F 32.0 °F 81% 29.36 in 3.0 mi West 23.0 mph 38.0 mph N/A   Overcast
11:36 AM 37.4 °F 26.1 °F 30.2 °F 75% 29.38 in 10.0 mi West 24.2 mph 38.0 mph N/A   Overcast
11:56 AM 37.4 °F 25.9 °F 30.2 °F 75% 29.40 in 10.0 mi West 25.3 mph 35.7 mph N/A   Overcast
12:16 PM 37.4 °F 26.4 °F 30.2 °F 75% 29.40 in 4.0 mi West 23.0 mph 36.8 mph N/A   Overcast
12:36 PM 35.6 °F 22.7 °F 30.2 °F 81% 29.43 in 2.5 mi West 28.8 mph 40.3 mph N/A   Overcast
12:56 PM 35.6 °F 25.2 °F 30.2 °F 81% 29.44 in 7.0 mi West 18.4 mph 33.4 mph N/A   Overcast
1:16 PM 35.6 °F 23.2 °F 30.2 °F 81% 29.44 in 3.0 mi West 26.5 mph 31.1 mph N/A   Overcast
1:36 PM - - - N/A% 29.47 in 1.5 mi West 29.9 mph 51.8 mph N/A   Overcast
1:56 PM 35.6 °F 24.2 °F 30.2 °F 81% 29.48 in 10.0 mi West 21.9 mph 32.2 mph N/A   Mostly Cloudy
2:16 PM - - - N/A% 29.48 in 10.0 mi West 26.5 mph 50.6 mph N/A   Mostly Cloudy
2:36 PM 37.4 °F 25.4 °F 26.6 °F 65% 29.50 in 10.0 mi West 27.6 mph 36.8 mph N/A   Mostly Cloudy
2:56 PM 37.4 °F 25.6 °F 26.6 °F 65% 29.52 in 10.0 mi West 26.5 mph 47.2 mph N/A   Overcast
3:16 PM 37.4 °F 27.2 °F 26.6 °F 65% 29.53 in 10.0 mi West 19.6 mph 38.0 mph N/A   Overcast
3:36 PM 35.6 °F 23.2 °F 28.4 °F 75% 29.55 in 2.5 mi West 26.5 mph 41.4 mph N/A   Overcast
3:56 PM - - - N/A% 29.55 in 8.0 mi West 34.5 mph 43.7 mph N/A   Mostly Cloudy
4:16 PM - - - N/A% 29.57 in 10.0 mi West 31.1 mph 40.3 mph N/A   Overcast
4:36 PM 35.6 °F 23.7 °F 26.6 °F 70% 29.60 in 10.0 mi West 24.2 mph 38.0 mph N/A   Mostly Cloudy
4:56 PM 35.6 °F 23.2 °F 28.4 °F 75% 29.61 in 9.0 mi West 26.5 mph 43.7 mph N/A   Mostly Cloudy
5:16 PM - - - N/A% 29.63 in 1.8 mi West 32.2 mph 57.5 mph N/A   Overcast
5:36 PM - - - N/A% 29.65 in 1.8 mi West 34.5 mph 52.9 mph N/A   Overcast
5:56 PM 35.6 °F 23.4 °F 28.4 °F 75% 29.65 in 10.0 mi West 25.3 mph 38.0 mph N/A   Overcast
6:16 PM - - - N/A% 29.67 in 9.0 mi West 33.4 mph 48.3 mph N/A   Mostly Cloudy
6:36 PM - - - N/A% 29.68 in 10.0 mi West 39.1 mph 49.5 mph N/A   Overcast
6:56 PM 37.4 °F 26.1 °F 26.6 °F 65% 29.71 in 10.0 mi West 24.2 mph 36.8 mph N/A   Overcast
7:16 PM 39.2 °F 27.2 °F 28.4 °F 65% 29.73 in 9.0 mi West 31.1 mph 47.2 mph N/A   Overcast
7:36 PM 37.4 °F 25.6 °F 30.2 °F 75% 29.74 in 10.0 mi WNW 26.5 mph 48.3 mph N/A   Mostly Cloudy
7:56 PM - - - N/A% 29.75 in 10.0 mi West 33.4 mph 44.9 mph N/A   Overcast
8:16 PM - - - N/A% 29.77 in 9.0 mi West 33.4 mph 47.2 mph N/A   Overcast
8:36 PM 41.0 °F 30.5 °F 30.2 °F 65% 29.79 in 10.0 mi West 26.5 mph 41.4 mph N/A   Overcast
8:56 PM - - - N/A% 29.80 in 10.0 mi West 31.1 mph 44.9 mph N/A   Mostly Cloudy
9:16 PM - - - N/A% 29.81 in 10.0 mi West 32.2 mph 43.7 mph N/A   Overcast
9:36 PM 42.8 °F 33.5 °F 30.2 °F 61% 29.83 in 10.0 mi West 23.0 mph 34.5 mph N/A   Overcast
9:56 PM 42.8 °F 33.1 °F 30.2 °F 61% 29.85 in 10.0 mi West 25.3 mph 36.8 mph N/A   Overcast
10:16 PM 42.8 °F 34.0 °F 32.0 °F 66% 29.86 in 10.0 mi West 20.7 mph 34.5 mph N/A   Overcast
10:36 PM 42.8 °F 34.0 °F 32.0 °F 66% 29.87 in 10.0 mi West 20.7 mph 29.9 mph N/A   Overcast
10:56 PM 42.8 °F 33.8 °F 30.2 °F 61% 29.88 in 10.0 mi West 21.9 mph 31.1 mph N/A   Overcast
11:16 PM 44.6 °F 36.4 °F 30.2 °F 57% 29.89 in 10.0 mi West 20.7 mph 31.1 mph N/A   Overcast
11:36 PM 44.6 °F 37.4 °F 30.2 °F 57% 29.90 in 10.0 mi West 16.1 mph 28.8 mph N/A   Overcast
11:56 PM 44.6 °F 36.6 °F 30.2 °F 57% 29.91 in 10.0 mi West 19.6 mph 27.6 mph N/A   Overcast